May 6 Louisiana TAGA Results Above Detection Limit,,,,,
Date_Time,Benzene Avg. (ppb),Toluene Avg. (ppb),Xylene Avg. (ppb),Latitude,Longitude
5/6/2010 3:26:14 PM,0.000,0.148,1.040,30.047794,-89.887749
5/6/2010 3:30:01 PM,0.122,1.108,1.032,30.037619,-89.907871
5/6/2010 3:30:02 PM,1.151,0.753,1.045,30.037589,-89.907965
5/6/2010 3:30:50 PM,0.733,0.765,1.429,30.036204,-89.912307
5/6/2010 3:30:51 PM,0.428,1.666,1.168,30.036173,-89.912404
5/6/2010 3:35:01 PM,0.244,2.454,1.272,30.030859,-89.928675
5/6/2010 3:35:02 PM,0.306,6.893,2.648,30.030825,-89.928770
5/6/2010 3:35:03 PM,0.973,7.249,2.849,30.030791,-89.928865
5/6/2010 3:35:04 PM,0.667,2.774,1.750,30.030756,-89.928963
5/6/2010 3:35:05 PM,0.244,1.986,1.185,30.030720,-89.929064
5/6/2010 3:35:06 PM,0.306,2.329,1.029,30.030684,-89.929167
5/6/2010 3:35:10 PM,0.667,1.233,1.114,30.030538,-89.929584
5/6/2010 3:40:04 PM,0.122,0.148,1.057,30.020665,-89.959813
5/6/2010 3:40:05 PM,0.850,3.722,2.507,30.020637,-89.959925
5/6/2010 3:40:06 PM,0.728,4.540,3.190,30.020609,-89.960037
5/6/2010 3:40:07 PM,1.273,3.070,2.360,30.020581,-89.960149
5/6/2010 3:00:32 PM,8.769,0.000,0.007,30.095519,-89.767254
5/6/2010 3:16:29 PM,5.322,0.000,0.097,30.076960,-89.845864
5/6/2010 4:21:12 PM,0.183,0.776,1.041,30.018145,-89.971352
5/6/2010 4:21:13 PM,0.850,1.405,1.102,30.018145,-89.971352
5/6/2010 4:47:36 PM,1.029,0.948,1.808,29.973758,-90.057383
5/6/2010 4:47:37 PM,2.363,2.798,5.200,29.973758,-90.057382
5/6/2010 4:47:38 PM,1.828,30.348,31.732,29.973758,-90.057382
5/6/2010 4:47:39 PM,5.225,62.900,60.065,29.973758,-90.057382
5/6/2010 4:47:40 PM,6.865,67.322,59.987,29.973758,-90.057382
5/6/2010 4:47:41 PM,4.247,44.235,40.045,29.973758,-90.057382
5/6/2010 4:47:42 PM,1.889,31.587,32.157,29.973758,-90.057382
5/6/2010 4:47:43 PM,3.641,22.144,22.202,29.973757,-90.057382
5/6/2010 4:47:44 PM,1.339,19.370,19.872,29.973757,-90.057382
5/6/2010 4:47:45 PM,1.701,17.148,18.088,29.973757,-90.057382
5/6/2010 4:47:46 PM,1.456,16.300,18.274,29.973757,-90.057382
5/6/2010 4:47:47 PM,0.733,19.335,19.766,29.973757,-90.057382
5/6/2010 4:47:48 PM,0.917,24.397,25.681,29.973757,-90.057381
5/6/2010 4:47:49 PM,4.125,27.906,30.626,29.973757,-90.057381
5/6/2010 4:47:50 PM,1.283,37.389,36.202,29.973757,-90.057381
5/6/2010 4:47:51 PM,4.013,49.202,51.178,29.973757,-90.057381
5/6/2010 4:47:52 PM,4.196,63.481,61.346,29.973757,-90.057381
5/6/2010 4:47:53 PM,6.137,77.523,75.741,29.973757,-90.057381
5/6/2010 4:47:54 PM,4.802,82.567,77.267,29.973757,-90.057381
5/6/2010 4:47:55 PM,7.170,76.213,69.107,29.973757,-90.057381
5/6/2010 4:47:56 PM,5.347,62.118,63.237,29.973757,-90.057381
5/6/2010 4:47:57 PM,4.375,54.057,51.519,29.973757,-90.057381
5/6/2010 4:47:58 PM,3.290,44.526,45.509,29.973757,-90.057381
5/6/2010 4:47:59 PM,3.280,43.512,44.887,29.973757,-90.057381
5/6/2010 4:48:00 PM,3.040,46.778,41.912,29.973757,-90.057381
5/6/2010 4:48:01 PM,2.618,49.327,42.961,29.973757,-90.057381
5/6/2010 4:48:02 PM,3.412,68.953,62.261,29.973757,-90.057381
5/6/2010 4:48:03 PM,7.466,102.525,100.778,29.973757,-90.057381
5/6/2010 4:48:04 PM,6.819,132.031,125.212,29.973757,-90.057381
5/6/2010 4:48:05 PM,11.861,175.686,163.419,29.973757,-90.057381
5/6/2010 4:48:06 PM,13.108,172.983,171.588,29.973756,-90.057381
5/6/2010 4:48:07 PM,12.395,200.581,188.043,29.973756,-90.057381
5/6/2010 4:48:08 PM,14.580,201.451,201.492,29.973752,-90.057381
5/6/2010 4:48:09 PM,17.799,237.294,229.730,29.973738,-90.057380
5/6/2010 4:48:10 PM,16.913,283.492,248.112,29.973713,-90.057378
5/6/2010 4:48:11 PM,16.296,269.859,248.192,29.973679,-90.057376
5/6/2010 4:48:12 PM,11.387,219.856,205.385,29.973637,-90.057373
5/6/2010 4:48:13 PM,13.786,165.384,162.013,29.973590,-90.057371
5/6/2010 4:48:14 PM,10.333,153.286,143.297,29.973537,-90.057368
5/6/2010 4:48:15 PM,10.389,119.127,124.150,29.973478,-90.057365
5/6/2010 4:48:16 PM,9.538,129.547,118.254,29.973414,-90.057363
5/6/2010 4:48:17 PM,6.198,103.770,95.194,29.973344,-90.057362
5/6/2010 4:48:18 PM,4.135,81.809,74.717,29.973270,-90.057362
5/6/2010 4:48:19 PM,4.308,33.217,35.056,29.973192,-90.057362
5/6/2010 4:48:20 PM,1.518,14.214,14.497,29.973111,-90.057360
5/6/2010 4:48:21 PM,1.090,9.247,11.153,29.973028,-90.057356
5/6/2010 4:48:22 PM,0.850,4.884,6.880,29.972943,-90.057350
5/6/2010 4:48:23 PM,0.244,2.294,5.998,29.972858,-90.057346
5/6/2010 4:48:24 PM,0.306,2.946,4.730,29.972768,-90.057336
5/6/2010 4:48:25 PM,0.306,1.873,4.254,29.972678,-90.057329
5/6/2010 4:48:26 PM,0.484,1.666,3.624,29.972589,-90.057322
5/6/2010 4:48:27 PM,0.244,2.786,3.433,29.972497,-90.057314
5/6/2010 4:48:28 PM,0.183,1.861,3.463,29.972404,-90.057308
5/6/2010 4:48:29 PM,1.334,1.541,2.818,29.972308,-90.057300
5/6/2010 4:48:30 PM,0.306,0.616,2.761,29.972212,-90.057292
5/6/2010 4:48:31 PM,0.306,1.085,2.546,29.972116,-90.057283
5/6/2010 4:48:32 PM,0.244,0.628,1.776,29.972023,-90.057274
5/6/2010 4:48:33 PM,0.000,0.925,1.831,29.971927,-90.057265
5/6/2010 4:48:34 PM,1.029,0.160,1.359,29.971829,-90.057257
5/6/2010 4:48:35 PM,0.484,0.616,1.253,29.971731,-90.057248
5/6/2010 4:48:36 PM,0.545,0.000,1.333,29.971634,-90.057240
5/6/2010 4:48:37 PM,0.000,0.925,1.158,29.971538,-90.057233
5/6/2010 4:48:38 PM,0.183,0.605,1.164,29.971440,-90.057223
5/6/2010 4:48:39 PM,0.484,0.148,1.048,29.971343,-90.057217
5/6/2010 4:48:40 PM,0.545,1.197,1.154,29.971246,-90.057206
5/6/2010 4:48:41 PM,0.061,0.308,1.222,29.971140,-90.057198
5/6/2010 4:48:42 PM,0.367,0.616,1.010,29.971039,-90.057190
5/6/2010 4:48:43 PM,0.122,1.529,1.183,29.970937,-90.057184
5/6/2010 4:50:10 PM,1.034,1.677,1.449,29.968614,-90.058236
5/6/2010 4:50:11 PM,0.850,1.369,1.310,29.968600,-90.058316
5/6/2010 4:50:12 PM,0.912,1.073,1.086,29.968584,-90.058397
5/6/2010 4:51:06 PM,2.485,1.085,0.981,29.966813,-90.062919
5/6/2010 4:51:47 PM,0.728,1.541,1.248,29.965267,-90.064317
5/6/2010 4:51:48 PM,1.095,1.689,1.019,29.965207,-90.064371
5/6/2010 4:51:49 PM,1.034,2.294,1.436,29.965147,-90.064424
5/6/2010 4:51:50 PM,0.244,1.221,1.297,29.965085,-90.064477
5/6/2010 4:51:51 PM,1.701,1.565,1.394,29.965024,-90.064531
5/6/2010 4:51:52 PM,0.794,1.689,1.564,29.964962,-90.064585
5/6/2010 4:51:53 PM,1.034,2.626,1.144,29.964902,-90.064639
5/6/2010 4:53:13 PM,0.306,0.480,1.009,29.960073,-90.068943
5/6/2010 4:53:22 PM,0.545,1.369,2.226,29.959612,-90.069356
5/6/2010 4:53:23 PM,0.550,3.995,3.534,29.959555,-90.069406
5/6/2010 4:53:24 PM,2.185,4.451,5.067,29.959499,-90.069457
5/6/2010 4:53:25 PM,0.367,4.404,5.346,29.959441,-90.069509
5/6/2010 4:53:26 PM,0.550,5.204,5.591,29.959384,-90.069560
5/6/2010 4:53:27 PM,0.912,5.026,4.297,29.959326,-90.069612
5/6/2010 4:53:28 PM,0.306,3.230,3.289,29.959267,-90.069664
5/6/2010 4:53:29 PM,0.306,1.233,1.475,29.959208,-90.069717
5/6/2010 4:53:30 PM,0.061,0.468,1.242,29.959148,-90.069770
5/6/2010 4:53:45 PM,0.061,1.588,1.006,29.958275,-90.070552
5/6/2010 4:53:46 PM,0.667,0.937,1.046,29.958218,-90.070604
5/6/2010 4:53:47 PM,0.728,0.765,1.951,29.958159,-90.070656
5/6/2010 4:53:48 PM,0.550,3.722,5.771,29.958099,-90.070709
5/6/2010 4:53:49 PM,0.728,4.007,5.785,29.958038,-90.070763
5/6/2010 4:53:50 PM,0.728,2.306,4.948,29.957976,-90.070819
5/6/2010 4:53:51 PM,0.484,1.701,2.381,29.957914,-90.070874
5/6/2010 4:53:52 PM,0.968,1.381,1.543,29.957852,-90.070928
5/6/2010 5:00:57 PM,1.512,0.308,1.056,29.942330,-90.073987
5/6/2010 5:01:02 PM,0.244,0.480,1.577,29.942274,-90.073865
5/6/2010 5:01:03 PM,0.912,1.517,1.642,29.942265,-90.073844
5/6/2010 5:01:04 PM,0.183,1.725,1.219,29.942257,-90.073824
5/6/2010 5:01:05 PM,0.789,0.616,1.135,29.942249,-90.073806
5/6/2010 5:01:12 PM,0.306,1.097,0.977,29.942224,-90.073729
5/6/2010 5:01:17 PM,1.273,1.097,1.003,29.942222,-90.073724
5/6/2010 5:01:18 PM,0.244,0.456,1.119,29.942222,-90.073724
5/6/2010 5:01:19 PM,1.334,0.765,1.184,29.942222,-90.073723
5/6/2010 5:01:20 PM,0.306,0.937,1.061,29.942222,-90.073722
5/6/2010 5:01:21 PM,0.550,0.776,1.074,29.942221,-90.073722
5/6/2010 5:01:23 PM,1.334,1.061,1.058,29.942220,-90.073718
5/6/2010 5:01:25 PM,2.663,1.381,1.099,29.942219,-90.073715
5/6/2010 5:01:27 PM,0.728,0.616,1.132,29.942218,-90.073710
5/6/2010 5:01:32 PM,0.244,1.061,0.983,29.942215,-90.073666
5/6/2010 5:01:35 PM,0.428,0.616,1.121,29.942215,-90.073656
5/6/2010 5:01:39 PM,0.489,0.628,1.239,29.942214,-90.073646
5/6/2010 5:01:40 PM,1.696,0.948,1.278,29.942215,-90.073644
5/6/2010 5:01:41 PM,1.212,1.085,1.307,29.942213,-90.073642
5/6/2010 5:01:42 PM,0.728,1.553,1.182,29.942214,-90.073638
5/6/2010 5:01:43 PM,1.884,1.826,1.277,29.942211,-90.073632
5/6/2010 5:01:44 PM,0.244,1.529,1.003,29.942208,-90.073612
5/6/2010 5:01:45 PM,0.489,1.517,1.184,29.942203,-90.073581
5/6/2010 5:01:46 PM,0.367,1.677,1.177,29.942189,-90.073544
5/6/2010 5:01:47 PM,0.850,0.468,1.010,29.942164,-90.073500
5/6/2010 5:01:48 PM,0.061,1.061,1.222,29.942133,-90.073447
5/6/2010 5:01:50 PM,1.273,1.073,1.102,29.942067,-90.073330
5/6/2010 5:01:51 PM,0.000,1.197,1.087,29.942033,-90.073270
5/6/2010 5:01:53 PM,1.151,0.925,1.006,29.941965,-90.073151
5/6/2010 5:01:56 PM,0.667,0.788,0.957,29.941878,-90.072995
5/6/2010 5:02:01 PM,0.667,0.605,1.032,29.941768,-90.072802
5/6/2010 5:02:03 PM,0.122,0.937,1.009,29.941711,-90.072700
5/6/2010 5:02:36 PM,1.273,0.605,0.957,29.939844,-90.069359
5/6/2010 5:02:44 PM,0.789,0.628,0.979,29.939241,-90.068288
5/6/2010 5:05:00 PM,0.061,0.628,1.619,29.937681,-90.041357
5/6/2010 5:05:01 PM,0.606,0.308,1.016,29.937621,-90.041149
5/6/2010 5:05:02 PM,1.273,0.937,1.068,29.937554,-90.040952
5/6/2010 5:05:03 PM,0.306,1.085,1.303,29.937473,-90.040730
5/6/2010 5:05:04 PM,0.000,0.776,1.155,29.937384,-90.040532
5/6/2010 5:05:05 PM,0.183,1.541,1.371,29.937287,-90.040337
5/6/2010 5:05:06 PM,0.061,2.021,1.429,29.937182,-90.040157
5/6/2010 5:05:07 PM,0.606,1.233,1.585,29.937066,-90.039973
5/6/2010 5:05:08 PM,0.183,1.097,1.735,29.936942,-90.039794
5/6/2010 5:05:09 PM,0.306,1.221,1.432,29.936809,-90.039623
5/6/2010 5:05:10 PM,0.183,2.181,1.507,29.936669,-90.039458
5/6/2010 5:05:11 PM,0.122,0.913,1.411,29.936521,-90.039299
5/6/2010 5:05:12 PM,0.667,0.925,1.837,29.936365,-90.039150
5/6/2010 5:05:13 PM,1.029,0.753,1.931,29.936203,-90.039011
5/6/2010 5:05:14 PM,0.489,1.381,1.850,29.936040,-90.038886
5/6/2010 5:05:15 PM,0.122,1.541,1.578,29.935872,-90.038771
5/6/2010 5:05:16 PM,0.728,1.393,1.398,29.935698,-90.038665
5/6/2010 5:05:17 PM,0.850,2.578,2.154,29.935520,-90.038571
5/6/2010 5:05:18 PM,0.667,1.405,2.321,29.935338,-90.038491
5/6/2010 5:05:19 PM,0.550,1.073,2.954,29.935156,-90.038425
5/6/2010 5:05:20 PM,1.701,3.355,2.837,29.934956,-90.038370
5/6/2010 5:05:21 PM,0.611,1.541,2.371,29.934792,-90.038330
5/6/2010 5:05:22 PM,0.489,2.158,2.303,29.934609,-90.038295
5/6/2010 5:05:23 PM,2.241,1.849,2.355,29.934426,-90.038266
5/6/2010 5:05:24 PM,1.456,1.998,1.689,29.934244,-90.038243
5/6/2010 5:05:25 PM,0.122,0.765,1.252,29.934062,-90.038224
5/6/2010 5:05:26 PM,0.489,0.628,1.022,29.933880,-90.038213
5/6/2010 5:05:27 PM,0.306,0.616,0.952,29.933698,-90.038207
5/6/2010 5:05:28 PM,0.306,0.480,1.042,29.933516,-90.038211
5/6/2010 4:35:09 PM,0.183,1.666,1.430,30.005573,-90.035996
5/6/2010 4:35:10 PM,1.034,2.774,1.796,30.005572,-90.036000
5/6/2010 4:35:11 PM,0.912,3.811,1.884,30.005571,-90.036001
5/6/2010 4:35:12 PM,1.579,2.934,1.805,30.005571,-90.036002
5/6/2010 4:35:13 PM,1.095,1.197,1.773,30.005571,-90.036002
5/6/2010 4:35:14 PM,1.273,2.602,1.247,30.005571,-90.036002
5/6/2010 4:35:15 PM,1.334,1.849,1.571,30.005571,-90.036002
5/6/2010 4:35:16 PM,0.850,1.245,1.369,30.005571,-90.036002
5/6/2010 4:35:17 PM,0.606,2.442,1.498,30.005571,-90.036002
5/6/2010 4:35:19 PM,0.183,2.602,2.307,30.005571,-90.036002
5/6/2010 4:35:20 PM,0.428,1.085,2.071,30.005571,-90.036002
5/6/2010 4:35:21 PM,0.728,2.318,1.978,30.005570,-90.036003
5/6/2010 4:35:22 PM,0.728,2.649,1.957,30.005569,-90.036006
5/6/2010 4:35:23 PM,0.667,1.245,1.734,30.005565,-90.036017
5/6/2010 4:35:24 PM,0.667,1.553,1.401,30.005557,-90.036037
5/6/2010 4:35:25 PM,0.789,1.529,1.588,30.005546,-90.036066
5/6/2010 4:35:26 PM,0.122,2.555,1.363,30.005532,-90.036102
5/6/2010 4:35:27 PM,0.789,1.405,1.494,30.005517,-90.036142
5/6/2010 4:35:28 PM,0.306,3.871,1.908,30.005501,-90.036184
5/6/2010 4:35:29 PM,1.879,2.922,2.158,30.005484,-90.036227
5/6/2010 4:35:30 PM,0.428,4.623,2.464,30.005468,-90.036270
5/6/2010 4:35:31 PM,0.367,2.750,2.222,30.005451,-90.036314
5/6/2010 4:35:32 PM,0.122,3.918,1.874,30.005433,-90.036361
5/6/2010 4:35:33 PM,0.428,1.233,1.172,30.005414,-90.036410
5/6/2010 4:36:55 PM,0.550,0.901,1.216,30.003564,-90.041100
5/6/2010 4:36:56 PM,1.640,2.738,1.232,30.003521,-90.041214
5/6/2010 4:36:57 PM,0.917,0.937,1.367,30.003476,-90.041330
5/6/2010 4:37:31 PM,0.489,1.517,1.747,30.002747,-90.045441
5/6/2010 4:37:32 PM,2.730,2.158,1.924,30.002742,-90.045551
5/6/2010 4:37:33 PM,2.429,1.837,1.546,30.002731,-90.045713
5/6/2010 4:37:34 PM,1.151,1.506,1.184,30.002724,-90.045830
5/6/2010 4:38:15 PM,5.383,0.000,0.042,30.002963,-90.051429
5/6/2010 4:39:56 PM,0.367,1.085,1.190,29.998148,-90.060700
5/6/2010 4:40:25 PM,0.061,3.995,0.439,29.997826,-90.061684
5/6/2010 4:40:26 PM,0.306,7.694,0.596,29.997822,-90.061710
5/6/2010 4:40:27 PM,0.968,7.166,0.859,29.997817,-90.061732
5/6/2010 4:40:28 PM,0.122,5.376,0.847,29.997812,-90.061750
5/6/2010 4:40:29 PM,0.000,5.423,0.549,29.997808,-90.061762
5/6/2010 4:42:12 PM,0.122,1.849,0.954,29.997602,-90.060980
5/6/2010 4:42:13 PM,0.606,1.529,1.052,29.997668,-90.060925
5/6/2010 4:42:14 PM,0.606,1.677,1.016,29.997738,-90.060868
5/6/2010 4:45:37 PM,0.244,1.085,0.964,29.983231,-90.058113
5/6/2010 4:45:46 PM,0.489,1.061,0.999,29.982354,-90.058136
5/6/2010 4:23:51 PM,0.367,1.221,0.993,30.017462,-89.972691
5/6/2010 4:26:54 PM,7.257,0.160,0.097,30.014677,-89.986317
5/6/2010 4:28:10 PM,0.244,0.937,1.190,30.013455,-89.993261
5/6/2010 4:29:49 PM,0.545,1.257,1.491,30.012008,-90.002744
5/6/2010 4:29:50 PM,0.122,1.713,1.974,30.011997,-90.002844
5/6/2010 4:29:51 PM,0.728,2.329,1.760,30.011986,-90.002945
5/6/2010 4:29:52 PM,0.545,1.701,1.098,30.011975,-90.003045
5/6/2010 4:29:53 PM,0.850,1.346,0.993,30.011965,-90.003147
5/6/2010 4:31:35 PM,2.118,1.541,1.299,30.011166,-90.010300
5/6/2010 4:31:36 PM,0.306,1.369,1.659,30.011153,-90.010425
5/6/2010 4:31:37 PM,1.039,1.393,1.508,30.011140,-90.010550
5/6/2010 4:31:38 PM,1.212,1.725,2.105,30.011126,-90.010674
5/6/2010 4:31:39 PM,0.244,1.097,1.562,30.011113,-90.010797
5/6/2010 4:31:40 PM,0.061,0.468,1.458,30.011100,-90.010922
5/6/2010 4:31:43 PM,0.306,0.913,1.300,30.011059,-90.011299
5/6/2010 4:31:56 PM,0.061,1.209,1.098,30.010865,-90.013156
5/6/2010 4:31:58 PM,0.183,0.480,1.414,30.010847,-90.013289
5/6/2010 4:31:59 PM,0.606,1.073,1.083,30.010833,-90.013379
5/6/2010 4:33:15 PM,0.611,1.689,1.608,30.009278,-90.023473
5/6/2010 4:33:16 PM,0.912,1.654,2.927,30.009246,-90.023629
5/6/2010 4:33:17 PM,2.241,1.802,3.307,30.009213,-90.023785
5/6/2010 4:33:18 PM,0.244,0.788,2.902,30.009180,-90.023940
5/6/2010 4:33:19 PM,0.183,0.616,1.055,30.009146,-90.024094
5/6/2010 5:15:05 PM,1.339,3.070,7.572,29.903924,-90.051813
5/6/2010 5:15:06 PM,1.828,6.437,11.568,29.903930,-90.051803
5/6/2010 5:15:07 PM,5.037,9.395,11.303,29.903937,-90.051789
5/6/2010 5:15:08 PM,1.518,7.296,8.653,29.903945,-90.051776
5/6/2010 5:15:09 PM,2.251,5.252,6.564,29.903950,-90.051766
5/6/2010 5:15:10 PM,2.490,2.377,3.561,29.903954,-90.051760
5/6/2010 5:15:11 PM,1.518,2.442,2.852,29.903955,-90.051759
5/6/2010 5:15:12 PM,0.183,2.318,2.094,29.903955,-90.051758
5/6/2010 5:15:13 PM,0.183,1.085,1.752,29.903955,-90.051758
5/6/2010 5:15:14 PM,1.090,1.998,1.281,29.903955,-90.051758
5/6/2010 5:16:56 PM,0.183,2.294,1.216,29.899774,-90.046104
5/6/2010 5:16:57 PM,0.850,2.478,1.275,29.899773,-90.046103
5/6/2010 5:16:58 PM,0.244,1.233,1.206,29.899773,-90.046103
5/6/2010 5:16:59 PM,0.428,1.861,1.184,29.899773,-90.046103
5/6/2010 5:17:00 PM,1.818,1.381,1.466,29.899773,-90.046103
5/6/2010 5:17:01 PM,0.367,1.381,1.715,29.899773,-90.046103
5/6/2010 5:17:02 PM,0.489,1.221,1.475,29.899774,-90.046103
5/6/2010 5:17:03 PM,0.367,1.529,1.420,29.899774,-90.046103
5/6/2010 5:17:04 PM,0.367,1.553,1.017,29.899774,-90.046103
5/6/2010 5:17:05 PM,0.244,0.925,1.267,29.899774,-90.046103
5/6/2010 5:17:06 PM,0.489,1.061,1.223,29.899774,-90.046103
5/6/2010 5:17:07 PM,0.728,1.713,1.332,29.899774,-90.046103
5/6/2010 5:17:08 PM,0.122,0.628,1.135,29.899774,-90.046103
5/6/2010 5:17:09 PM,0.672,1.061,1.313,29.899774,-90.046103
5/6/2010 5:17:10 PM,0.122,1.381,1.302,29.899774,-90.046103
5/6/2010 5:17:11 PM,1.395,1.837,1.358,29.899774,-90.046103
5/6/2010 5:17:12 PM,0.244,1.861,1.234,29.899774,-90.046103
5/6/2010 5:17:13 PM,0.306,1.748,1.216,29.899774,-90.046103
5/6/2010 5:17:14 PM,0.973,2.169,1.237,29.899774,-90.046103
5/6/2010 5:17:15 PM,0.550,1.986,1.342,29.899774,-90.046103
5/6/2010 5:17:16 PM,0.428,1.257,1.336,29.899774,-90.046103
5/6/2010 5:17:17 PM,0.606,1.221,1.381,29.899774,-90.046103
5/6/2010 5:17:20 PM,0.667,0.800,1.145,29.899775,-90.046103
5/6/2010 5:17:21 PM,0.306,1.245,1.129,29.899775,-90.046103
5/6/2010 5:17:22 PM,0.183,0.628,1.154,29.899775,-90.046103
5/6/2010 5:17:23 PM,0.061,0.456,1.055,29.899775,-90.046103
5/6/2010 5:17:24 PM,0.122,1.085,1.096,29.899775,-90.046103
5/6/2010 5:17:26 PM,0.968,0.753,1.048,29.899775,-90.046103
5/6/2010 5:17:27 PM,0.061,2.798,1.190,29.899775,-90.046103
5/6/2010 5:17:29 PM,0.122,1.357,1.016,29.899775,-90.046103
5/6/2010 5:17:30 PM,0.545,1.073,1.068,29.899774,-90.046103
5/6/2010 5:17:31 PM,0.122,1.861,1.406,29.899774,-90.046103
5/6/2010 5:17:32 PM,0.122,1.405,1.116,29.899775,-90.046103
5/6/2010 5:17:33 PM,0.183,1.221,1.406,29.899774,-90.046102
5/6/2010 5:17:34 PM,0.000,0.148,1.355,29.899774,-90.046102
5/6/2010 5:17:35 PM,0.000,0.901,0.970,29.899774,-90.046102
5/6/2010 5:17:36 PM,0.061,0.913,1.077,29.899774,-90.046102
5/6/2010 5:17:37 PM,0.061,0.925,1.003,29.899774,-90.046102
5/6/2010 5:17:39 PM,0.545,0.616,0.963,29.899774,-90.046102
5/6/2010 5:18:21 PM,0.183,1.369,0.976,29.899013,-90.045083
5/6/2010 5:18:22 PM,0.545,1.393,1.026,29.898952,-90.045001
5/6/2010 5:18:23 PM,0.667,0.456,1.093,29.898889,-90.044918
5/6/2010 5:18:24 PM,0.728,0.948,1.123,29.898827,-90.044836
5/6/2010 5:18:25 PM,0.061,1.541,1.391,29.898764,-90.044753
5/6/2010 5:18:26 PM,0.061,0.913,1.123,29.898703,-90.044671
5/6/2010 5:18:27 PM,0.183,1.666,1.299,29.898643,-90.044589
5/6/2010 5:18:28 PM,0.000,1.073,1.307,29.898582,-90.044508
5/6/2010 5:18:29 PM,0.183,1.701,0.997,29.898520,-90.044426
5/6/2010 5:18:52 PM,0.122,0.925,1.264,29.897088,-90.042511
5/6/2010 5:18:53 PM,0.061,2.009,1.193,29.897018,-90.042417
5/6/2010 5:34:40 PM,0.244,0.776,1.097,29.860871,-89.994122
5/6/2010 5:34:41 PM,1.456,1.701,1.461,29.860804,-89.994025
5/6/2010 5:34:42 PM,0.611,1.393,1.284,29.860737,-89.993928
5/6/2010 5:35:12 PM,5.928,0.000,0.405,29.859214,-89.990759
5/6/2010 5:39:59 PM,0.061,0.000,0.961,29.835397,-90.001696
5/6/2010 5:40:00 PM,0.000,0.160,2.668,29.835288,-90.001744
5/6/2010 5:40:01 PM,0.000,0.160,3.995,29.835179,-90.001790
5/6/2010 5:40:02 PM,6.773,0.000,9.623,29.835070,-90.001838
5/6/2010 5:40:03 PM,0.000,0.308,11.165,29.834962,-90.001885
5/6/2010 5:40:04 PM,0.061,0.468,16.232,29.834853,-90.001933
5/6/2010 5:40:05 PM,0.122,1.186,17.825,29.834744,-90.001980
5/6/2010 5:40:06 PM,0.061,1.701,26.124,29.834635,-90.002027
5/6/2010 5:40:07 PM,1.212,0.616,38.898,29.834526,-90.002075
5/6/2010 5:40:08 PM,0.061,0.628,40.623,29.834417,-90.002122
5/6/2010 5:40:09 PM,0.183,0.765,35.060,29.834308,-90.002169
5/6/2010 5:40:10 PM,0.484,0.640,29.854,29.834199,-90.002217
5/6/2010 5:40:11 PM,0.000,0.456,19.480,29.834090,-90.002264
5/6/2010 5:40:12 PM,0.122,0.148,11.254,29.833982,-90.002311
5/6/2010 5:40:13 PM,0.061,0.148,8.601,29.833874,-90.002357
5/6/2010 5:40:14 PM,0.122,0.000,5.502,29.833766,-90.002404
5/6/2010 5:40:15 PM,0.000,0.000,4.849,29.833659,-90.002451
5/6/2010 5:40:16 PM,0.061,0.000,2.737,29.833552,-90.002498
5/6/2010 5:40:17 PM,0.000,0.000,1.569,29.833445,-90.002544
5/6/2010 5:40:18 PM,0.000,0.148,1.130,29.833339,-90.002591
5/6/2010 5:43:38 PM,0.611,2.270,1.021,29.811830,-90.011271
5/6/2010 5:43:41 PM,1.090,1.381,0.986,29.811538,-90.011421
5/6/2010 5:43:42 PM,0.968,0.741,1.190,29.811439,-90.011472
5/6/2010 5:43:43 PM,0.244,0.776,1.449,29.811339,-90.011523
5/6/2010 5:43:44 PM,0.122,0.468,1.581,29.811239,-90.011574
5/6/2010 5:43:58 PM,0.000,0.000,1.079,29.809840,-90.012295
5/6/2010 6:07:53 PM,0.789,1.998,2.288,29.699006,-89.986519
5/6/2010 6:07:54 PM,1.212,2.158,2.627,29.698907,-89.986467
5/6/2010 6:07:55 PM,0.306,1.245,1.693,29.698806,-89.986414
5/6/2010 6:07:56 PM,0.183,1.108,1.874,29.698706,-89.986361
5/6/2010 6:07:57 PM,0.728,1.713,1.811,29.698604,-89.986309
5/6/2010 6:09:20 PM,6.437,0.000,0.143,29.690540,-89.982663
5/6/2010 6:09:40 PM,0.061,0.148,1.090,29.688615,-89.981858
5/6/2010 6:09:41 PM,0.000,0.160,1.504,29.688516,-89.981829
5/6/2010 6:09:42 PM,0.000,0.605,1.517,29.688417,-89.981803
5/6/2010 6:09:43 PM,0.000,0.628,1.630,29.688319,-89.981778
5/6/2010 6:09:44 PM,0.545,0.628,1.153,29.688220,-89.981756
5/6/2010 6:09:45 PM,0.061,0.468,1.107,29.688122,-89.981737
5/6/2010 6:09:46 PM,0.606,0.616,0.964,29.688023,-89.981720
5/6/2010 6:10:04 PM,1.151,0.901,1.045,29.686184,-89.981604
5/6/2010 6:10:05 PM,0.306,1.405,1.678,29.686082,-89.981599
5/6/2010 6:10:06 PM,1.090,3.011,2.708,29.685980,-89.981595
5/6/2010 6:10:07 PM,0.306,2.578,3.226,29.685877,-89.981591
5/6/2010 6:10:08 PM,0.061,2.567,3.700,29.685774,-89.981587
5/6/2010 6:10:09 PM,0.122,2.738,2.303,29.685670,-89.981582
5/6/2010 6:10:10 PM,0.606,0.776,2.047,29.685567,-89.981578
5/6/2010 6:10:11 PM,0.545,0.800,2.325,29.685463,-89.981573
5/6/2010 6:10:12 PM,0.489,1.529,2.404,29.685359,-89.981569
5/6/2010 6:10:13 PM,0.367,1.197,1.077,29.685255,-89.981565
5/6/2010 6:48:23 PM,5.866,0.000,0.007,29.562124,-89.791901
5/6/2010 6:53:01 PM,10.159,0.160,0.010,29.535101,-89.772694
5/6/2010 7:11:36 PM,0.489,0.456,1.073,29.466112,-89.678632
5/6/2010 7:11:37 PM,0.306,2.158,1.097,29.466050,-89.678550
5/6/2010 7:11:44 PM,0.183,0.308,0.968,29.465624,-89.677975
5/6/2010 7:11:47 PM,0.367,0.605,1.255,29.465444,-89.677733
5/6/2010 7:11:48 PM,0.122,1.085,1.113,29.465386,-89.677655
5/6/2010 7:11:49 PM,0.244,1.085,1.430,29.465328,-89.677577
5/6/2010 7:11:50 PM,0.606,1.998,1.253,29.465268,-89.677496
5/6/2010 7:11:51 PM,1.518,1.049,1.462,29.465206,-89.677413
5/6/2010 7:11:52 PM,1.029,2.045,1.947,29.465143,-89.677329
5/6/2010 7:11:53 PM,1.212,1.233,1.527,29.465079,-89.677244
5/6/2010 7:11:54 PM,0.606,0.456,1.381,29.465016,-89.677160
5/6/2010 7:11:55 PM,0.244,1.381,0.964,29.464952,-89.677077
5/6/2010 11:26:09 PM,5.322,0.160,0.174,29.690782,-89.982561
5/6/2010 11:37:03 PM,5.383,0.000,0.023,29.788687,-90.023012
5/6/2010 11:39:46 PM,1.334,0.628,1.073,29.814995,-90.009470
5/6/2010 11:39:47 PM,1.339,0.160,1.238,29.815154,-90.009388
5/6/2010 11:39:48 PM,1.884,0.308,1.168,29.815313,-90.009306
5/6/2010 11:43:01 PM,0.061,0.000,0.986,29.837556,-90.000607
5/6/2010 11:43:02 PM,0.000,0.160,1.013,29.837686,-90.000551
5/6/2010 11:43:03 PM,0.000,0.148,1.439,29.837816,-90.000494
5/6/2010 11:43:04 PM,0.061,0.000,1.687,29.837947,-90.000437
5/6/2010 11:43:05 PM,0.061,0.000,3.096,29.838078,-90.000381
5/6/2010 11:43:06 PM,0.000,0.296,3.181,29.838209,-90.000324
5/6/2010 11:43:07 PM,0.000,0.000,3.257,29.838340,-90.000266
5/6/2010 11:43:08 PM,0.484,0.000,3.194,29.838471,-90.000209
5/6/2010 11:43:09 PM,0.000,0.468,3.167,29.838600,-90.000155
5/6/2010 11:43:10 PM,0.000,0.000,3.164,29.838731,-90.000100
5/6/2010 11:43:11 PM,0.000,0.308,3.106,29.838861,-90.000044
5/6/2010 11:43:12 PM,0.484,0.296,3.090,29.838990,-89.999987
5/6/2010 11:43:13 PM,0.061,0.000,2.619,29.839117,-89.999927
5/6/2010 11:43:14 PM,0.000,0.468,2.663,29.839243,-89.999866
5/6/2010 11:43:15 PM,0.000,0.000,2.357,29.839366,-89.999800
5/6/2010 11:43:16 PM,0.183,0.000,1.976,29.839488,-89.999729